SAC C

Satellite information

Favourite Embed

Satellite Type and Status

PAYLOADIN ORBIT

Key statistics

Satellite SAC C at a glance.

Uptime

8994

Days in orbit

Revolutions

≈ 14.6

Per day

Orbit

SSO

Sun Synchronous Orbit

Inclination

98.5

Latest

Satellite identification and parameters

Extended collection of information and parameters for SAC C.

Object identification

Identified? True

Debris? False

Object name: SAC C

International designator: 2000-075B

Object number (NORAD): 26620

Object ID (CCSDS): 26620

Country: ARGENTINA (ARGN)

Current information (Y/N): Y

RCS size: LARGE

Orbital parameters

Period: 98.473 minutes

Inclination: 98.4914 deg

SMA: 7063.801 km

Apoapsis: 686.676 km

Periapsis: 684.657 km

RAAN: 183.3318 deg

Eccentricy: 0.0001429

Argument of periapsis: 77.7349 deg

Mean anomaly: 282.4012 deg

Mean motion: 14.62328826 rev/day

Mean motion (dot): 0.00000508 rev/day2

B* drag term: 0.00011051 1/REarth

Two-line elements (TLE)

Creation date: July 5, 2025, 5:45 p.m.

Reference frame: TEME

Reference center: EARTH

Epoch: July 5, 2025, 1:58 p.m. UTC

TLE line 0: 0 SAC C

TLE line 1: 1 26620U 00075B 25186.58200328 .00000508 00000-0 11051-3 0 9992

TLE line 2: 2 26620 98.4914 183.3318 0001429 77.7349 282.4012 14.62328826310154

Live tracking on map

Real-time ground track for satellite SAC C.

In-orbit conjunctions

A list of the most updated potential collisions computed for object SAC C.

Target Orbit TCA Probability of collision Miss distance Type
IRIDIUM 33 DEB LEO 2025-04-02 09:47:32 0.0001017533 906.0 (m) DEBRIS
CZ-2C DEB SSO 2025-02-11 22:13:18 0.0001939805 764.0 (m) DEBRIS
SL-18 DEB LEO 2025-01-24 17:05:40 0.0001048093 389.0 (m) DEBRIS
SL-8 DEB LEO 2024-09-25 20:17:21 0.0007465795 597.0 (m) DEBRIS
CZ-6A DEB SSO 2024-08-29 03:00:14 0.00017715 206.0 (m) DEBRIS

Associated space launch

EO 1 and SAS C are American and Argentinian Earth-imaging satellites.

SAC C was lifted into orbit during the mission ‘Delta II | EO 1 & SAC C’, on board a Delta II space rocket.

The launch took place on Nov. 21, 2000, 6:24 p.m. from Space Launch Complex 2W.

For more information about the launch, click the button.

Launch to space Delta II | EO 1 & SAC C
Delta II | EO 1 & SAC C

Agency: N/A

Status: Launch Successful

Launch date: Nov. 21, 2000, 6:24 p.m. UTC

Rocket: Delta II

Launch pad: Space Launch Complex 2W

Location: Vandenberg SFB, CA, USA

...

Latest news about this satellite

There are no fresh news available about this satellite. Check back as we update our databases every day.


Newsletter sign-up

Weekly statistics, charts and insights to help you stay on top of the space industry.